Regional Weather Roundup
Issued by NWS

Home | Current Version | Previous Version | Graphics & Text | Print | Product List | Glossary On
Versions: 1 2 3 4 5 6 7 8 9 10 11 12 13 14 15 16 17 18 19 20 21 22 23 24 25 26 27 28 29 30 31 32 33 34 35 36 37 38 39 40 41 42 43 44 45 46 47 48 49 50
000
ASUS43 KMPX 030901
RWRMN
WEATHER ROUNDUP FOR MINNESOTA
NATIONAL WEATHER SERVICE TWIN CITIES/CHANHASSEN MN
400 AM CDT FRI JUL 03 2015


NOTE: "FAIR" INDICATES FEW OR NO CLOUDS BELOW 12,000 FEET WITH NO
SIGNIFICANT WEATHER AND/OR OBSTRUCTIONS TO VISIBILITY. N/A MEANS
CURRENT SKY AND/OR WEATHER CONDITIONS ARE NOT AVAILABLE.

MNZ060>063-068>070-031000-
   Twin Cities Metro

CITY           SKY/WX    TMP DP  RH WIND       PRES   REMARKS
TWIN CITIES    CLEAR     63  56  78 S3        29.98S
ST PAUL        CLEAR     59  57  93 CALM      29.98S
CRYSTAL        CLEAR     57  54  89 CALM      29.97R
BLAINE         CLEAR     59  57  94 CALM      29.98R
LAKEVILLE      CLEAR     57  54  88 CALM      29.98S
EDEN PRAIRIE   CLEAR     59  56  89 SW3       29.97S
SOUTH ST PAUL  CLEAR     60  57  89 CALM      29.98R
LAKE ELMO      FAIR      55  55 100 CALM      29.99S
$$
MNZ001>005-007-008-013>017-022>024-027-028-031000-
   Northwest Minnesota

CITY           SKY/WX    TMP DP  RH WIND       PRES   REMARKS
BEMIDJI        CLEAR     60  53  76 SW3       29.90F
HALLOCK        FOG       57  55  94 CALM      29.89S VSB<1/4
ROSEAU         PTCLDY    64  61  88 W6        29.88S HAZE
WARROAD        PTCLDY    63  59  88 W5        29.87F FOG
THIEF RVR FALL CLOUDY    61  57  88 W3        29.90S
CROOKSTON      CLEAR     63  59  88 W3        29.90S
FOSSTON        PTCLDY    59  54  82 CALM      29.92S
DETROIT LAKES  PTCLDY    63  55  77 SW3       29.95S
MOORHEAD       CLEAR     63  59  88 S5        29.93S
PARK RAPIDS    CLEAR     59  53  80 SW5       29.93F
MAHNOMEN       FAIR      59  55  86 S8        29.91F
$$
MNZ006-009>011-018-025>026-031000-
   North Central Minnesota

CITY           SKY/WX    TMP DP  RH WIND       PRES   REMARKS
BAUDETTE       CLOUDY    63  57  81 W3        29.86S
FLAG ISLAND    PTCLDY    66  64  94 W8        29.84S FOG
INTL FALLS     CLOUDY    64  56  75 W7        29.85F
WASKISH        CLEAR     70  61  73 W14G20    29.88S
BIG FORK       PTCLDY    63  54  72 SW6       29.89F
LONGVILLE      CLOUDY    64  52  63 SW8       29.92F
GRAND RAPIDS   CLOUDY    64  50  59 SW7       29.91F
CRANE LAKE     MOCLDY    63  57  82 S1        29.87S
ORR            MOCLDY    63  52  67 CALM      29.85S
COOK           MOCLDY    64  55  72 SW5       29.88F
WALKER         PTSUNNY   63  52  66 W7        29.92S
$$
MNZ012-019>021-037-031000-
   Northeast Minnesota

CITY           SKY/WX    TMP DP  RH WIND       PRES   REMARKS
DULUTH         CLOUDY    64  54  69 W9        29.91F
ELY            MOCLDY    63  57  82 SW5       29.88S
HIBBING        CLOUDY    61  55  81 S3        29.90F
DULUTH HARBOR  MOCLDY    63  57  82 SW14      29.91S
TWO HARBORS    PTCLDY    64  57  77 SW6       29.88F
SILVER BAY     PTCLDY    64  55  72 CALM      29.87S
GRAND MARAIS     N/A     51  49  92 W5        29.84S
G MARAIS ARPRT MOCLDY    61  54  77 SW6       29.88S
$$
MNZ029>031-032-039>041-046>048-054>057-064-031000-
   West Central Minnesota

CITY           SKY/WX    TMP DP  RH WIND       PRES   REMARKS
FERGUS FALLS   CLEAR     59  55  88 CALM      29.95S
WHEATON        CLEAR     55  54  94 S5        29.97S
MORRIS         CLEAR     57  54  88 CALM      29.96R
ALEXANDRIA     CLEAR     59  52  77 SW9       29.98R
ELBOW LAKE     FAIR      56  54  92 S7        29.96S
WADENA         PTCLDY    55  52  88 W3        29.95S
GLENWOOD       CLEAR     55  52  88 SW5       29.98R
APPLETON       CLEAR     57  54  88 SW3       29.96F
BENSON         CLEAR     54  52  94 CALM      29.97F
ORTONVILLE     CLEAR     57  52  82 S3        29.97S
MADISON        CLEAR     54  52  94 SW5       29.97F
WILLMAR        FAIR      55  54  94 CALM      29.99F
$$
MNZ033>034-036-042>043-049>051-058-059-031000-
   Central Minnesota

CITY           SKY/WX    TMP DP  RH WIND       PRES   REMARKS
ST CLOUD       CLEAR     51  50  96 CALM      29.97S
SAUK CENTRE    FAIR      52  50  92 CALM      29.97S
PAYNESVILLE    CLEAR     47  47 100 CALM      29.98S
AITKIN         CLEAR     54  48  82 CALM      29.93S
PINE RIVER     PTCLDY    54  52  94 CALM      29.97S
BRAINERD       CLEAR     53  52  96 S7        29.95S
STAPLES        CLEAR     54  50  87 CALM      29.95F
LONG PRAIRIE   CLOUDY    52  50  93 S3        29.97R
LITTLE FALLS     N/A     50  50 100 CALM      29.96S FOG
LITCHFIELD     CLEAR     57  54  88 CALM      29.99S
BUFFALO        CLEAR     57  53  85 CALM      29.99S
MAPLE LAKE     CLEAR     57  55  91 CALM      29.99S
$$
MNZ037-044-045-052-053-031000-
   East Central Minnesota

CITY           SKY/WX    TMP DP  RH WIND       PRES   REMARKS
PRINCETON      CLEAR     54  52  94 CALM      29.98S
MORA           CLEAR     54  52  94 CALM      29.98F
CAMBRIDGE      CLEAR     57  50  77 CALM      29.95F
RUSH CITY      MOCLDY    54  52  95 S3        29.96F
MOOSE LAKE     PTCLDY    52  52 100 SW3       29.92S FOG
HINCKLEY       FAIR      54  54 100 CALM      29.95F
CLOQUET        MOCLDY    63  54  72 SW6       29.93S
MCGREGOR       CLEAR     57  54  88 SW3       29.94F
$$
MNZ071>073-080-081-089-090-097-098-031000-
   Southwest Minnesota

CITY           SKY/WX    TMP DP  RH WIND       PRES   REMARKS
MONTEVIDEO     CLEAR     57  52  82 W6        29.99F
GRANITE FALLS  CLEAR     55  52  92 CALM      30.00F
CANBY          CLEAR     57  52  83 SW6       30.00S
MARSHALL       CLEAR     55  48  76 SW5       29.99S
REDWOOD FALLS  CLEAR     55  50  83 CALM      29.99S
OLIVIA         CLEAR     52  48  87 SW5       29.98F
PIPESTONE      CLEAR     52  50  93 SW3       30.01F
WINDOM         CLEAR     52  48  87 CALM      30.02S
WORTHINGTON    CLEAR     52  46  82 SW6       30.02S
JACKSON        CLEAR     50  48  93 W5        30.02S
TRACY          CLEAR     57  52  82 SW8       30.00F
SLAYTON        CLEAR     52  51  95 CALM      30.02F
$$
MNZ065>067-074>077-082>085-091>093-031000-
   South Central Minnesota

CITY           SKY/WX    TMP DP  RH WIND       PRES   REMARKS
MANKATO        CLEAR     57  52  82 W5        29.99F
NEW ULM        CLEAR     54  52  94 W5        29.99F
ST JAMES       CLEAR     55  52  88 SW3       30.01F
FAIRMONT       CLEAR     55  46  71 CALM      30.01S
GLENCOE        CLEAR     59  54  83 CALM      29.98S
FARIBAULT      CLEAR     54  52  94 CALM      30.00S
OWATONNA       CLEAR     55  54  94 SW3       30.00S
WASECA         CLEAR     52  50  93 CALM      30.01F
ALBERT LEA     CLEAR     57  54  88 CALM      30.01S
$$
MNZ078>079-086>088-094>096-031000-
   Southeast Minnesota

CITY           SKY/WX    TMP DP  RH WIND       PRES   REMARKS
ROCHESTER      PTCLDY    54  52  93 SW6       30.01S
RED WING       CLEAR     54  54 100 CALM      29.98R
DODGE CENTER   PTCLDY    55  54  94 SW6       30.00S
WINONA         CLEAR     55  55 100 CALM      29.99S
AUSTIN         CLEAR     57  55  94 CALM      30.00F
PRESTON        PTCLDY    56  52  84 W3        30.01S
$$
ABBREVIATIONS USED IN REMARKS
   TC - TEMPERATURES IN CELSIUS
  WCI - WIND CHILL INDEX
   HX - HEAT INDEX
  VSB - VISIBILITY
$$



USA.gov is the U.S. government's official web portal to all federal, state and local government web resources and services.